HYLAS 4 (43272 NORAD) Tracking and Keplerian Element Data

This shows tracking and keplerian element data for the satellite.

Feedback or suggestion? Click here.




ElementValue
Catalog43272
NameHYLAS 4
Epoch Orbit1278
Epoch Day268.68015435
Epoch Year2021
RAAN183.7487
Inclination0.0309
Eccentricity0.0004504
Argument of Perigee357.8153
Mean Anonmoly34.4991
Mean Motion1.0027033
Decay Rate-2.36E-06
L11 43272U 18033B 21268.68015435 -.00000236 00000-0 00000-0 0 9996
L22 43272 0.0309 183.7487 0004504 357.8153 34.4991 1.00270330 12789

Live tracking and technical data element details for HYLAS 4 (NORAD 43272). HYLAS 4 can be tracked NOW for your location showing map with azimuth and elevation plus other details from your city location.

Track the satellite on the map from your city or location and see movement details for azimuth, elevation, latitude, longitude, range, height, and movement on the map or in text.







IsCatalogInMostPopularTable: catalog: 43272, numindb: 764
Update: records affected: 1



GetName: 43272 HYLAS 4

Hit Count: updated at: Mon, 27 Sep 2021 01:45:42 GMT